Powrót do katalogu

COSMOS 2375

GLONASS

LostNawigacjaMEO
NORAD 26564·PAYLOAD·🇷🇺 Russia

Wystrzelony Oct 13, 2000 z Baikonur Cosmodrome

Loading…

Następne Przeloty (najbliższe 24 godziny)

TLE

NieaktualneSource: Space-Track

Epoka: Aug 2, 2026, 06:50 UTC

1 26564U 00063A   26214.28510922 -.00000040  00000-0  00000+0 0  9990
2 26564  65.1695 312.2525 0006363  15.1049 344.9639  2.13101779200769

Śledź COSMOS 2375 w czasie rzeczywistym z AllMySat

Download on the App Store